SCP
0 0 2 1 1 1 0 0 0 0 0 0 0 0 0 0 0 0 0 0 0 0 0 0 0 0 0 0 0 0 0 0 0 0 0 0 0 0 0 0 0 0 0
0 2 2 1 1 1 1 0 0 0 0 0 0 0 0 0 0 0 0 0 0 0 0 0 0 0 0 0 0 0 0 0 0 0 0 0 0 0 0 0 0 0 0
0 2 2 1 1 1 0 0 0 0 1 1 1 1 1 1 1 1 0 0 0 0 0 0 0 0 0 0 0 0 0 0 0 0 0 0 0 0 0 0 0 0 0
0 2 2 2 1 0 0 0 0 0 0 1 1 1 1 2 2 1 0 0 0 0 0 0 0 0 0 0 0 0 0 0 0 0 0 0 0 0 0 0 0 0 0
0 1 2 1 1 1 0 0 0 0 1 1 1 1 1 1 1 0 0 0 0 0 0 0 0 0 0 0 0 0 0 0 0 0 0 0 0 0 0 0 0 0 0
0 0 2 2 1 1 1 1 0 0 1 1 1 1 1 1 1 0 0 0 0 0 0 0 0 0 0 0 0 0 0 0 0 0 0 0 0 0 0 0 0 0 0
0 0 1 2 2 1 1 1 0 0 0 1 1 1 1 1 0 0 0 0 0 0 0 0 0 0 0 0 0 0 0 0 0 0 0 0 0 0 0 0 0 0 0
0 0 0 1 2 2 1 1 1 0 0 1 1 1 1 1 0 0 0 0 0 0 0 0 0 0 0 0 0 0 0 0 0 0 0 0 0 0 0 0 0 0 0
0 0 0 0 1 2 1 1 1 0 0 1 2 1 0 0 0 0 0 0 0 0 0 0 0 0 0 0 0 0 0 0 0 0 0 0 0 0 0 0 0 0 0
0 0 0 0 1 1 2 1 1 1 0 2 2 0 0 0 0 0 0 0 0 0 0 0 0 0 0 0 0 0 0 0 0 0 0 0 0 0 0 0 0 0 0
0 0 0 0 0 1 1 0 1 2 1 1 0 0 0 0 0 0 0 0 0 0 0 0 0 0 0 0 0 0 0 0 0 0 0 0 0 0 0 0 0 0 0
0 0 0 1 0 0 0 1 3 3 1 0 0 0 0 0 0 0 0 0 0 0 0 0 0 0 0 0 0 0 0 0 0 0 0 0 0 0 0 0 0 0 0
0 0 0 0 0 0 0 1 2 0 0 0 0 0 0 0 0 0 0 0 0 0 0 0 0 0 0 0 0 0 0 0 0 0 0 0 0 0 0 0 0 0 0
0 0 0 0 0 0 1 2 0 0 0 0 0 0 0 0 0 0 0 0 0 0 0 0 0 0 0 0 0 0 0 0 0 0 0 0 0 0 0 0 0 0 0
1 1 0 0 1 2 1 0 0 0 0 0 0 0 0 0 0 0 0 0 0 0 0 0 0 0 0 0 0 0 0 0 0 0 0 0 0 0 0 0 0 0 0
2 1 1 1 1 0 0 0 0 0 0 0 0 0 0 0 0 0 0 0 0 0 0 0 0 0 0 0 0 0 0 0 0 0 0 0 0 0 0 0 0 0 0
3 3 2 1 0 0 0 0 0 0 0 0 0 0 0 0 0 0 0 0 0 0 0 0 0 0 0 0 0 0 0 0 0 0 0 0 0 0 0 0 0 0 0
2 1 0 0 0 0 0 0 0 0 0 0 0 0 0 0 0 0 0 0 0 0 0 0 0 0 0 0 0 0 0 0 0 0 0 0 0 0 0 0 0 0 0
0 0 0 0 0 0 0 0 0 0 0 0 0 0 0 0 0 0 0 0 0 0 0 0 0 0 0 0 0 0 0 0 0 0 0 0 0 0 0 0 0 0 0
0 0 0 0 0 0 0 0 0 0 0 0 0 0 0 0 0 0 0 0 0 0 0 0 0 0 0 0 0 0 0 0 0 0 0 0 0 0 0 0 0 0 0
0 0 0 0 0 0 0 0 0 0 0 0 0 0 0 0 0 0 0 0 0 0 0 0 0 0 0 0 0 0 0 0 0 0 0 0 0 0 0 0 0 0 0
0 0 0 0 0 0 0 0 0 0 0 0 0 0 0 0 0 0 0 0 0 0 0 0 0 0 0 0 0 0 0 0 0 0 0 0 0 0 0 0 0 0 0
0 0 0 0 0 0 0 0 0 0 0 0 0 0 0 0 0 0 0 0 0 0 0 0 0 0 0 0 0 0 0 0 0 0 0 0 0 0 0 0 0 0 0
0 0 0 0 0 0 0 0 0 0 0 0 0 0 0 0 0 0 0 0 0 0 0 0 0 0 0 0 0 0 0 0 0 0 0 0 0 0 0 0 0 0 -0
0 0 0 0 0 0 0 0 0 0 0 0 0 0 0 0 0 0 0 0 0 0 0 0 0 0 0 0 0 0 0 0 0 0 0 0 0 0 0 0 0 0 0
0 0 0 0 0 0 0 0 0 0 0 0 0 0 0 0 0 0 0 0 0 0 0 0 0 0 -0 0 0 0 0 0 0 0 0 0 0 0 0 0 0 0 0
Wind_Speed_500mb
48 46 70 85 85 82 81 82 82 83 81 79 70 65 63 59 51 53 50 44 36 30 24 17 18 13 20 23 27 27 27 24 23 29 23 10 3 10 8 6 10 13 18
44 52 63 88 90 89 86 86 86 85 87 81 77 72 65 61 59 55 50 41 35 30 29 28 22 22 23 25 24 23 18 17 22 8 11 6 9 19 20 24 24 24 27
52 56 64 81 90 93 92 88 87 91 89 83 78 75 64 62 60 58 52 48 38 31 31 32 29 23 23 24 19 16 14 12 4 4 8 8 7 16 22 20 24 30 38
45 61 68 76 83 92 90 91 94 95 87 84 84 84 75 72 69 60 53 42 28 26 35 35 26 22 22 17 13 11 7 5 4 14 17 18 19 11 16 17 22 41 45
36 52 66 72 79 82 92 95 99 95 87 84 84 76 69 66 57 51 46 36 33 36 38 28 24 17 14 12 10 6 4 5 12 18 19 18 20 21 21 41 36 52 51
22 40 52 64 80 91 95 99 101 99 88 88 85 74 71 69 64 46 46 43 43 42 31 23 15 12 11 11 10 4 7 14 16 16 17 18 19 24 24 39 53 61 66
20 36 56 73 83 102 100 105 108 104 94 90 83 74 69 63 56 54 51 46 44 35 26 17 12 13 14 10 3 10 16 16 15 16 18 22 24 26 31 40 51 62 71
28 29 51 65 81 94 106 108 109 103 98 89 83 77 72 64 57 50 45 39 31 26 22 19 19 18 13 5 11 11 11 12 14 18 21 24 28 33 39 45 49 58 62
42 28 42 58 78 92 105 110 108 103 101 92 82 76 70 66 56 43 37 33 27 28 27 22 17 14 5 4 6 8 10 12 15 19 23 28 34 39 42 41 40 43 48
37 39 36 51 65 88 98 110 108 107 101 88 76 79 64 55 40 38 33 33 35 36 27 18 15 11 3 3 6 8 11 15 18 22 29 35 40 40 38 37 37 38 43
39 38 33 48 59 75 91 101 104 100 89 80 78 66 56 44 42 41 41 42 45 29 23 22 16 8 4 3 8 13 16 20 26 31 36 37 36 35 33 33 35 36 42
52 45 37 43 59 71 83 89 92 86 82 80 73 65 53 43 49 58 54 49 35 32 27 19 11 8 2 5 10 16 24 30 32 32 30 32 32 33 35 36 38 42 45
48 51 35 45 62 68 79 79 79 80 79 72 62 58 53 58 58 63 58 48 38 34 25 17 12 5 3 11 18 25 28 30 29 30 31 33 33 37 36 41 48 49 44
39 48 36 56 67 71 76 81 84 87 76 69 61 61 64 60 65 62 53 41 34 29 23 16 7 3 10 17 22 26 25 24 28 32 33 33 37 40 41 43 43 42 44
27 49 53 63 70 77 82 86 90 84 80 72 67 70 70 67 64 56 44 38 33 27 19 10 2 9 14 18 20 19 21 24 27 28 29 30 32 36 38 39 42 47 50
44 58 58 71 78 91 91 94 87 91 84 78 74 68 68 66 60 53 47 41 34 24 14 4 4 10 13 13 14 15 17 21 24 25 24 21 23 26 30 30 33 40 49
55 72 79 85 92 96 99 100 100 93 85 83 78 80 73 66 59 53 47 39 28 19 9 3 5 10 13 12 12 13 17 19 19 20 23 26 30 33 37 38 42 46 46
71 87 94 92 94 99 99 103 103 101 93 87 87 80 72 67 60 50 40 33 24 15 10 9 9 13 13 14 15 16 19 19 19 22 26 31 35 40 44 49 48 45 45
84 100 101 101 101 99 104 111 111 107 97 93 86 77 69 64 54 44 37 30 21 18 16 16 16 16 16 18 17 20 21 19 22 25 30 35 39 44 47 50 48 47 47
99 110 108 107 107 103 110 115 108 101 93 86 81 73 65 58 50 42 36 32 25 22 22 21 23 23 23 22 22 23 21 20 24 26 29 34 39 44 46 46 49 52 57
113 114 110 111 109 108 112 111 102 97 92 85 77 67 57 49 43 40 35 31 28 27 25 25 30 30 30 30 26 24 21 27 28 29 33 37 40 40 39 41 46 50 50
115 118 116 110 103 104 106 108 100 91 83 76 69 61 52 46 43 40 40 33 28 25 29 28 31 31 30 27 24 26 29 31 31 33 33 33 36 36 37 40 43 45 49
107 120 122 113 102 98 99 105 94 81 75 67 63 58 53 48 40 35 36 32 26 27 33 29 30 30 26 25 27 29 30 32 32 30 27 27 31 35 40 46 47 51 59
104 116 119 116 105 93 89 88 79 70 66 65 62 56 50 47 39 35 31 28 29 31 32 31 31 28 25 25 27 29 30 29 28 25 24 27 35 40 43 49 56 60 64
96 98 119 110 99 88 84 76 69 62 62 60 56 53 50 46 45 39 34 35 37 30 31 30 26 24 30 32 28 29 30 31 29 24 25 35 45 52 55 58 62 65 68
94 106 100 99 90 82 75 64 55 50 56 59 55 52 50 47 45 46 50 43 39 36 32 32 26 30 32 27 25 27 25 26 27 29 41 49 54 58 61 63 65 68 70
Wind_Direction_500mb
233 237 224 224 221 213 205 204 205 203 202 203 200 201 199 198 192 188 186 186 192 198 208 220 246 255 265 277 279 287 291 295 305 320 322 314 250 233 263 323 289 296 313
233 219 216 217 221 219 211 207 206 204 204 204 200 198 194 195 187 185 191 191 202 203 219 225 247 258 277 284 287 289 289 305 313 328 330 284 265 247 261 287 290 289 304
223 211 207 215 215 217 215 212 209 209 207 205 201 202 198 194 193 193 200 201 205 209 222 225 240 255 275 285 279 272 283 294 249 326 338 311 295 292 278 270 277 290 306
228 214 204 206 214 215 214 213 211 212 211 211 208 208 203 198 198 197 203 208 216 232 227 230 236 259 272 271 257 272 277 206 237 308 308 302 289 304 303 284 283 297 314
229 212 209 207 204 205 208 209 210 215 212 215 212 212 207 205 207 208 215 208 207 207 218 219 238 260 258 245 244 220 180 247 285 303 310 308 309 304 298 306 305 310 320
247 233 227 220 212 204 205 206 208 213 214 214 211 216 209 215 208 208 202 194 199 212 202 216 229 220 218 204 172 180 277 287 297 305 313 321 324 313 313 310 318 320 321
270 243 222 216 214 206 203 204 208 212 214 213 212 211 214 216 208 205 201 198 200 201 191 190 184 178 167 159 226 287 290 297 300 312 318 324 324 322 322 319 318 320 319
273 260 236 225 219 208 204 203 207 209 210 211 209 214 212 211 214 215 208 202 206 184 173 169 165 171 172 212 289 298 301 306 316 318 323 326 327 325 323 320 321 319 313
274 281 247 233 223 213 206 203 204 207 210 209 211 210 213 211 210 210 204 198 180 172 172 172 186 175 178 295 305 311 308 314 317 317 323 325 320 318 314 312 312 308 304
264 271 246 237 226 221 213 206 206 206 209 207 208 207 208 215 206 193 185 194 203 185 177 173 164 159 194 265 294 311 325 319 318 324 325 320 315 311 309 310 307 301 300
250 261 261 238 229 218 211 207 204 205 206 202 200 202 199 192 174 174 161 218 180 171 163 163 164 176 203 267 324 327 322 319 323 323 322 317 316 316 319 320 314 310 310
231 250 271 234 218 209 206 204 199 196 199 194 196 192 199 188 179 175 170 173 172 161 167 163 165 161 186 329 325 321 324 322 322 326 325 322 322 320 320 320 320 319 316
226 231 249 215 206 201 199 190 182 183 191 190 186 188 182 170 170 164 163 161 166 162 159 162 157 127 352 330 325 321 323 327 331 333 334 329 322 316 323 325 324 326 329
230 216 207 193 194 189 181 174 175 180 180 178 178 174 171 167 162 159 156 157 159 159 156 147 127 4 324 323 326 331 330 332 341 346 340 333 333 340 340 336 336 336 336
215 186 175 175 169 162 168 168 172 170 168 172 173 171 167 164 159 157 158 161 158 152 145 133 46 324 327 330 327 330 338 348 355 359 360 2 355 349 346 349 346 341 340
183 163 162 160 158 165 159 164 164 164 174 168 167 167 163 158 157 155 156 155 152 146 139 117 324 329 341 340 343 350 354 1 9 14 18 4 354 354 352 351 350 344 337
164 152 155 153 156 159 162 163 160 164 165 163 163 158 156 154 151 151 149 147 145 139 130 85 10 4 9 14 19 18 12 11 8 4 6 4 1 358 355 351 346 341 337
149 143 147 147 152 153 163 158 160 158 161 162 156 154 153 150 147 147 146 143 141 135 112 83 54 41 41 49 39 30 28 28 23 15 10 6 2 358 352 346 347 347 345
147 139 150 153 152 158 159 158 155 154 154 148 147 148 151 146 146 145 145 138 134 119 101 81 69 65 65 57 48 44 41 35 32 24 14 4 357 354 345 346 350 353 352
137 141 145 148 149 144 150 150 146 146 141 142 143 145 147 145 147 147 141 130 122 110 96 92 86 79 77 69 66 61 51 45 32 16 6 1 357 349 347 352 353 356 358
128 130 137 136 139 143 148 140 138 138 140 141 141 141 143 144 144 139 130 124 117 108 100 97 92 84 80 80 71 60 39 32 21 16 12 10 4 358 359 359 0 2 356
121 127 127 131 137 141 140 134 133 133 136 138 139 139 140 140 137 137 125 118 113 107 102 96 89 80 71 64 54 44 38 34 23 22 18 15 9 8 7 8 8 4 3
113 128 131 132 132 134 132 129 128 137 137 137 135 136 136 132 128 127 123 116 110 109 101 95 90 84 75 68 58 50 41 36 27 23 16 12 13 18 20 19 14 11 12
111 121 126 124 125 128 126 122 130 134 136 134 133 132 133 132 129 126 117 110 111 108 102 96 91 88 83 70 60 49 43 38 30 23 18 23 29 30 26 23 22 19 17
111 119 121 122 122 123 120 124 129 135 132 130 130 132 134 136 133 127 119 120 112 102 99 94 91 81 75 65 54 45 36 31 30 24 25 29 29 27 27 26 23 20 17
116 113 115 115 116 116 116 119 125 132 131 128 131 134 138 137 136 132 126 118 109 104 99 92 78 73 64 60 54 45 34 32 28 29 35 32 30 27 25 22 22 20 18
Wind_Speed_850mb
48 46 70 85 85 82 81 82 82 83 81 79 70 65 63 59 51 53 50 44 36 30 24 17 18 13 20 23 27 27 27 24 23 29 23 10 3 10 8 6 10 13 18
44 52 63 88 90 89 86 86 86 85 87 81 77 72 65 61 59 55 50 41 35 30 29 28 22 22 23 25 24 23 18 17 22 8 11 6 9 19 20 24 24 24 27
52 56 64 81 90 93 92 88 87 91 89 83 78 75 64 62 60 58 52 48 38 31 31 32 29 23 23 24 19 16 14 12 4 4 8 8 7 16 22 20 24 30 38
45 61 68 76 83 92 90 91 94 95 87 84 84 84 75 72 69 60 53 42 28 26 35 35 26 22 22 17 13 11 7 5 4 14 17 18 19 11 16 17 22 41 45
36 52 66 72 79 82 92 95 99 95 87 84 84 76 69 66 57 51 46 36 33 36 38 28 24 17 14 12 10 6 4 5 12 18 19 18 20 21 21 41 36 52 51
22 40 52 64 80 91 95 99 101 99 88 88 85 74 71 69 64 46 46 43 43 42 31 23 15 12 11 11 10 4 7 14 16 16 17 18 19 24 24 39 53 61 66
20 36 56 73 83 102 100 105 108 104 94 90 83 74 69 63 56 54 51 46 44 35 26 17 12 13 14 10 3 10 16 16 15 16 18 22 24 26 31 40 51 62 71
28 29 51 65 81 94 106 108 109 103 98 89 83 77 72 64 57 50 45 39 31 26 22 19 19 18 13 5 11 11 11 12 14 18 21 24 28 33 39 45 49 58 62
42 28 42 58 78 92 105 110 108 103 101 92 82 76 70 66 56 43 37 33 27 28 27 22 17 14 5 4 6 8 10 12 15 19 23 28 34 39 42 41 40 43 48
37 39 36 51 65 88 98 110 108 107 101 88 76 79 64 55 40 38 33 33 35 36 27 18 15 11 3 3 6 8 11 15 18 22 29 35 40 40 38 37 37 38 43
39 38 33 48 59 75 91 101 104 100 89 80 78 66 56 44 42 41 41 42 45 29 23 22 16 8 4 3 8 13 16 20 26 31 36 37 36 35 33 33 35 36 42
52 45 37 43 59 71 83 89 92 86 82 80 73 65 53 43 49 58 54 49 35 32 27 19 11 8 2 5 10 16 24 30 32 32 30 32 32 33 35 36 38 42 45
48 51 35 45 62 68 79 79 79 80 79 72 62 58 53 58 58 63 58 48 38 34 25 17 12 5 3 11 18 25 28 30 29 30 31 33 33 37 36 41 48 49 44
39 48 36 56 67 71 76 81 84 87 76 69 61 61 64 60 65 62 53 41 34 29 23 16 7 3 10 17 22 26 25 24 28 32 33 33 37 40 41 43 43 42 44
27 49 53 63 70 77 82 86 90 84 80 72 67 70 70 67 64 56 44 38 33 27 19 10 2 9 14 18 20 19 21 24 27 28 29 30 32 36 38 39 42 47 50
44 58 58 71 78 91 91 94 87 91 84 78 74 68 68 66 60 53 47 41 34 24 14 4 4 10 13 13 14 15 17 21 24 25 24 21 23 26 30 30 33 40 49
55 72 79 85 92 96 99 100 100 93 85 83 78 80 73 66 59 53 47 39 28 19 9 3 5 10 13 12 12 13 17 19 19 20 23 26 30 33 37 38 42 46 46
71 87 94 92 94 99 99 103 103 101 93 87 87 80 72 67 60 50 40 33 24 15 10 9 9 13 13 14 15 16 19 19 19 22 26 31 35 40 44 49 48 45 45
84 100 101 101 101 99 104 111 111 107 97 93 86 77 69 64 54 44 37 30 21 18 16 16 16 16 16 18 17 20 21 19 22 25 30 35 39 44 47 50 48 47 47
99 110 108 107 107 103 110 115 108 101 93 86 81 73 65 58 50 42 36 32 25 22 22 21 23 23 23 22 22 23 21 20 24 26 29 34 39 44 46 46 49 52 57
113 114 110 111 109 108 112 111 102 97 92 85 77 67 57 49 43 40 35 31 28 27 25 25 30 30 30 30 26 24 21 27 28 29 33 37 40 40 39 41 46 50 50
115 118 116 110 103 104 106 108 100 91 83 76 69 61 52 46 43 40 40 33 28 25 29 28 31 31 30 27 24 26 29 31 31 33 33 33 36 36 37 40 43 45 49
107 120 122 113 102 98 99 105 94 81 75 67 63 58 53 48 40 35 36 32 26 27 33 29 30 30 26 25 27 29 30 32 32 30 27 27 31 35 40 46 47 51 59
104 116 119 116 105 93 89 88 79 70 66 65 62 56 50 47 39 35 31 28 29 31 32 31 31 28 25 25 27 29 30 29 28 25 24 27 35 40 43 49 56 60 64
96 98 119 110 99 88 84 76 69 62 62 60 56 53 50 46 45 39 34 35 37 30 31 30 26 24 30 32 28 29 30 31 29 24 25 35 45 52 55 58 62 65 68
94 106 100 99 90 82 75 64 55 50 56 59 55 52 50 47 45 46 50 43 39 36 32 32 26 30 32 27 25 27 25 26 27 29 41 49 54 58 61 63 65 68 70
Wind_Direction_850mb
233 237 224 224 221 213 205 204 205 203 202 203 200 201 199 198 192 188 186 186 192 198 208 220 246 255 265 277 279 287 291 295 305 320 322 314 250 233 263 323 289 296 313
233 219 216 217 221 219 211 207 206 204 204 204 200 198 194 195 187 185 191 191 202 203 219 225 247 258 277 284 287 289 289 305 313 328 330 284 265 247 261 287 290 289 304
223 211 207 215 215 217 215 212 209 209 207 205 201 202 198 194 193 193 200 201 205 209 222 225 240 255 275 285 279 272 283 294 249 326 338 311 295 292 278 270 277 290 306
228 214 204 206 214 215 214 213 211 212 211 211 208 208 203 198 198 197 203 208 216 232 227 230 236 259 272 271 257 272 277 206 237 308 308 302 289 304 303 284 283 297 314
229 212 209 207 204 205 208 209 210 215 212 215 212 212 207 205 207 208 215 208 207 207 218 219 238 260 258 245 244 220 180 247 285 303 310 308 309 304 298 306 305 310 320
247 233 227 220 212 204 205 206 208 213 214 214 211 216 209 215 208 208 202 194 199 212 202 216 229 220 218 204 172 180 277 287 297 305 313 321 324 313 313 310 318 320 321
270 243 222 216 214 206 203 204 208 212 214 213 212 211 214 216 208 205 201 198 200 201 191 190 184 178 167 159 226 287 290 297 300 312 318 324 324 322 322 319 318 320 319
273 260 236 225 219 208 204 203 207 209 210 211 209 214 212 211 214 215 208 202 206 184 173 169 165 171 172 212 289 298 301 306 316 318 323 326 327 325 323 320 321 319 313
274 281 247 233 223 213 206 203 204 207 210 209 211 210 213 211 210 210 204 198 180 172 172 172 186 175 178 295 305 311 308 314 317 317 323 325 320 318 314 312 312 308 304
264 271 246 237 226 221 213 206 206 206 209 207 208 207 208 215 206 193 185 194 203 185 177 173 164 159 194 265 294 311 325 319 318 324 325 320 315 311 309 310 307 301 300
250 261 261 238 229 218 211 207 204 205 206 202 200 202 199 192 174 174 161 218 180 171 163 163 164 176 203 267 324 327 322 319 323 323 322 317 316 316 319 320 314 310 310
231 250 271 234 218 209 206 204 199 196 199 194 196 192 199 188 179 175 170 173 172 161 167 163 165 161 186 329 325 321 324 322 322 326 325 322 322 320 320 320 320 319 316
226 231 249 215 206 201 199 190 182 183 191 190 186 188 182 170 170 164 163 161 166 162 159 162 157 127 352 330 325 321 323 327 331 333 334 329 322 316 323 325 324 326 329
230 216 207 193 194 189 181 174 175 180 180 178 178 174 171 167 162 159 156 157 159 159 156 147 127 4 324 323 326 331 330 332 341 346 340 333 333 340 340 336 336 336 336
215 186 175 175 169 162 168 168 172 170 168 172 173 171 167 164 159 157 158 161 158 152 145 133 46 324 327 330 327 330 338 348 355 359 360 2 355 349 346 349 346 341 340
183 163 162 160 158 165 159 164 164 164 174 168 167 167 163 158 157 155 156 155 152 146 139 117 324 329 341 340 343 350 354 1 9 14 18 4 354 354 352 351 350 344 337
164 152 155 153 156 159 162 163 160 164 165 163 163 158 156 154 151 151 149 147 145 139 130 85 10 4 9 14 19 18 12 11 8 4 6 4 1 358 355 351 346 341 337
149 143 147 147 152 153 163 158 160 158 161 162 156 154 153 150 147 147 146 143 141 135 112 83 54 41 41 49 39 30 28 28 23 15 10 6 2 358 352 346 347 347 345
147 139 150 153 152 158 159 158 155 154 154 148 147 148 151 146 146 145 145 138 134 119 101 81 69 65 65 57 48 44 41 35 32 24 14 4 357 354 345 346 350 353 352
137 141 145 148 149 144 150 150 146 146 141 142 143 145 147 145 147 147 141 130 122 110 96 92 86 79 77 69 66 61 51 45 32 16 6 1 357 349 347 352 353 356 358
128 130 137 136 139 143 148 140 138 138 140 141 141 141 143 144 144 139 130 124 117 108 100 97 92 84 80 80 71 60 39 32 21 16 12 10 4 358 359 359 0 2 356
121 127 127 131 137 141 140 134 133 133 136 138 139 139 140 140 137 137 125 118 113 107 102 96 89 80 71 64 54 44 38 34 23 22 18 15 9 8 7 8 8 4 3
113 128 131 132 132 134 132 129 128 137 137 137 135 136 136 132 128 127 123 116 110 109 101 95 90 84 75 68 58 50 41 36 27 23 16 12 13 18 20 19 14 11 12
111 121 126 124 125 128 126 122 130 134 136 134 133 132 133 132 129 126 117 110 111 108 102 96 91 88 83 70 60 49 43 38 30 23 18 23 29 30 26 23 22 19 17
111 119 121 122 122 123 120 124 129 135 132 130 130 132 134 136 133 127 119 120 112 102 99 94 91 81 75 65 54 45 36 31 30 24 25 29 29 27 27 26 23 20 17
116 113 115 115 116 116 116 119 125 132 131 128 131 134 138 137 136 132 126 118 109 104 99 92 78 73 64 60 54 45 34 32 28 29 35 32 30 27 25 22 22 20 18